User: anonymous   Login
Location: Unspecified
(0.0000°N, 0.0000°E)
Time: 06:06:10
(UTC+00:00)
Language:

UFO 5 - Orbit

View from above orbital plane
View from above orbital plane
View from above satellite
View from above satellite

Ground track
Ground track

The orbit data is extracted from the following two-line orbital elements,

1 23589U 95027A   18133.42862989 0.00000000  00000-0  00000-0 0    07
2 23589  10.2903  25.2238 0003793 303.5916  56.3842  0.98743790    00
Epoch (UTC): 13 May 2018 10:17:13
Eccentricity: 0.0003793
inclination: 10.2903°
perigee height: 36204 km
apogee height: 36236 km
right ascension of ascending node: 25.2238°
argument of perigee: 303.5916°
revolutions per day: 0.98743790
mean anomaly at epoch: 56.3842°
orbit number at epoch: 0

The dashed part of the orbit path shows where the satellite is in the earth's shadow,  

DLR